Location: Dana
(41.8364°N, 106.7042°W)
Time: 02:25:44
(UTC+00:00)

Transit 4A - Pass Details

Date: 15 May 2026
Orbit: 860 x 980 km, 66.8° (Epoch: 6 June)

Event Time Altitude Azimuth Distance (km) Brightness Sun altitude
Rises 21:03:35 0° 336° (NNW) 3,677 11.0 55.8°
Reaches altitude 10° 21:09:13 10° 16° (NNE) 2,739 10.2 54.9°
Maximum altitude 21:10:17 10° 26° (NNE) 2,710 10.2 54.7°
Drops below altitude 10° 21:11:21 10° 35° (NE) 2,739 10.1 54.5°
Sets 21:16:58 0° 75° (ENE) 3,677 10.7 53.6°
